This demonstration page uses our WeatherBlox Daily Observations layout. Learn more.

Left ArrowRight Arrow

39.12711, -84.51439

Hourly Observations for November 10, 2020

Temp ( °F °C ) Dew Point ( °F °C ) Humidity (%) Winds ( mph kmh ) Pressure ( in mb ) Visibility ( mi km ) Precip ( " mm )
12:53 am 00:53 Clear 53 11.7 51 10.6 93 93 Calm 30.09 1019 10 16 0.00 0.00
1:53 am 01:53 Clear 51 10.6 50 10 96 96 Calm 30.08 1019 10 16 0.00 0.00
2:53 am 02:53 Clear with Mist and Fog 51 10.6 50 10 96 96 Calm 30.08 1019 5 8 0.00 0.00
3:05 am 03:05 Clear with Mist and Fog 50 10 49 9.4 96 96 Calm 30.10 1019 2 2 0.00 0.00
3:15 am 03:15 Clear with Mist and Fog 50 10 49 9.4 96 96 Calm 30.10 1019 4 6 0.00 0.00
3:53 am 03:53 Clear with Mist and Fog 49 9.4 49 9.4 100 100 Calm 30.08 1019 2 3 0.00 0.00
4:12 am 04:12 Clear with Mist and Fog 49 9.4 48 8.9 97 97 Calm 30.09 1019 1 2 0.00 0.00
4:20 am 04:20 Clear with Mist and Fog 49 9.4 48 8.9 97 97 Calm 30.09 1019 1 1 0.00 0.00
4:24 am 04:24 Clear with Mist and Fog 50 10 49 9.4 96 96 Calm 30.09 1019 2 3 0.00 0.00
4:31 am 04:31 Clear 50 10 48 8.9 93 93 Calm 30.09 1019 7 11 0.00 0.00
4:53 am 04:53 Clear 51 10.6 50 10 96 96 Calm 30.08 1019 8 13 0.00 0.00
5:53 am 05:53 Cloudy 52 11.1 50 10 93 93 Calm 30.08 1019 9 14 0.00 0.00
6:53 am 06:53 Mostly Cloudy 51 10.6 49 9.4 92 92 Calm 30.08 1019 10 16 0.00 0.00
7:53 am 07:53 Cloudy 53 11.7 51 10.6 93 93 Calm 30.08 1019 9 14 0.00 0.00
8:53 am 08:53 Partly Cloudy 58 14.4 54 12.2 87 87 Calm 30.07 1018 10 16 0.00 0.00
9:53 am 09:53 Partly Cloudy 66 18.9 56 13.3 70 70 SSW 6 9 30.06 1018 9 14 0.00 0.00
10:53 am 10:53 Partly Cloudy 72 22.2 56 13.3 57 57 S 9 15 30.04 1017 10 16 0.00 0.00
11:53 am 11:53 Partly Cloudy 76 24.4 58 14.4 54 54 S 14 22 30.01 1016 10 16 0.00 0.00
12:53 pm 12:53 Sunny 78 25.6 58 14.4 50 50 SSE 14 22 29.96 1015 10 16 0.00 0.00
1:53 pm 13:53 Mostly Sunny 80 26.7 58 14.4 47 47 S 17 28 29.92 1013 10 16 0.00 0.00
2:53 pm 14:53 Partly Cloudy 79 26.1 59 15 50 50 S 15 24 29.90 1013 10 16 0.00 0.00
3:53 pm 15:53 Mostly Sunny 79 26.1 58 14.4 49 49 SSW 17 28 29.89 1012 10 16 0.00 0.00
4:53 pm 16:53 Partly Cloudy 77 25 58 14.4 52 52 SSW 13 20 29.89 1012 10 16 0.00 0.00
5:53 pm 17:53 Cloudy 76 24.4 57 13.9 52 52 S 9 15 29.86 1011 10 16 0.00 0.00
6:53 pm 18:53 Cloudy 73 22.8 58 14.4 59 59 S 7 11 29.86 1011 10 16 0.00 0.00
7:53 pm 19:53 Mostly Cloudy 74 23.3 58 14.4 57 57 SSE 10 17 29.86 1011 10 16 0.00 0.00
8:53 pm 20:53 Cloudy 70 21.1 62 16.7 76 76 S 17 28 29.88 1012 10 16 0.00 0.00
9:53 pm 21:53 Cloudy 66 18.9 64 17.8 93 93 SSW 6 9 29.88 1012 10 16 0.12 3.05
10:53 pm 22:53 Cloudy with Light Rain 66 18.9 64 17.8 93 93 S 8 13 29.87 1011 9 14 0.13 3.30
11:53 pm 23:53 Cloudy with Light Rain 67 19.4 64 17.8 91 91 SSW 9 15 29.85 1011 5 8 0.03 0.76

Powered by AerisWeather